Location: Newark
(30.1000°N, 109.4667°E)
Time: 20:13:52
(UTC+00:00)

Courier 1B Rocket - Pass Details

Date: 20 February 2020
Orbit: 920 x 1202 km, 28.2° (Epoch: 09 April)

Event Time Altitude Azimuth Distance (km) Brightness Sun altitude
Exits shadow 21:07:24 63° 208° (SSW) 1,162 5.1 -28.8°
Maximum altitude 21:07:46 64° 192° (SSW) 1,157 5.2 -28.7°
Drops below altitude 10° 21:14:59 10° 112° (ESE) 2,979 8.3 -27.2°
Sets 21:17:53 0° 109° (ESE) 3,976 9.3 -26.5°
